Location: PSU-Greenbush Astrophysical Observatory
(37.5140°N, 94.9880°W)
Time: 17:27:54
(UTC-06:00)

Transit 2A - Pass Details

Date: 02 February 2020
Orbit: 600 x 959 km, 66.7° (Epoch: 19 February)

Event Time Altitude Azimuth Distance (km) Brightness Sun altitude
Rises 02:43:18 0° 340° (NNW) 3,031 - -54.9°
Reaches altitude 10° 02:45:41 10° 348° (NNW) 2,163 - -54.4°
Maximum altitude 02:50:17 38° 57° (ENE) 1,126 - -53.6°
Drops below altitude 10° 02:55:19 10° 125° (SE) 2,373 - -52.7°
Sets 02:58:01 0° 133° (SE) 3,364 - -52.2°
